Torna al catalogo

STARLINK-30617

AttivoComunicazioniVLEO
NORAD 58104·PAYLOAD·🇺🇸 United States

Lanciato Oct 21, 2023 da Vandenberg Space Force Base

Loading…

Prossimi Passaggi (prossime 24 ore)

TLE

AggiornatoSource: CelesTrak SupGP

Epoca: Sep 14, 2026, 15:09 UTC

1 58104C 23161H   26257.63173611 -.00045855  00000+0 -13552-2 0  2574
2 58104  53.1608   5.2658 0001282  69.6452 308.2745 15.34404761    19

Traccia STARLINK-30617 in tempo reale con AllMySat

Download on the App Store